• In Österreich
  • Länderverzeichnis
  • Für 7 Tage
  • Wassertemperatur
  • Satellitenkarten
  • Wetterkarte
  • News
  • Widgets
  • user-avatar
    Anmelden

    Stündliche Wetter Ghanzi

    Heute, 20 Oktober, Freitag

    Zeit Temperatur Niederschläge Wind Luftdruck Luftfeuchtigkeit
    00:00 +22°C° 0 mm 4 m/S 717 mmHg 27%
    01:00 +21°C° 0 mm 4 m/S 717 mmHg 28%
    02:00 +21°C° 0 mm 4 m/S 717 mmHg 30%
    03:00 +21°C° 0 mm 4 m/S 717 mmHg 31%
    04:00 +20°C° 0 mm 3 m/S 717 mmHg 32%
    05:00 +21°C° 0 mm 4 m/S 717 mmHg 31%
    06:00 +21°C° 0 mm 4 m/S 718 mmHg 30%
    07:00 +22°C° 0 mm 4 m/S 718 mmHg 29%
    08:00 +25°C° 0 mm 4 m/S 718 mmHg 26%
    09:00 +27°C° 0 mm 4 m/S 719 mmHg 22%
    10:00 +30°C° 0 mm 4 m/S 719 mmHg 19%
    11:00 +32°C° 0 mm 4 m/S 718 mmHg 17%
    12:00 +31°C° 0 mm 3 m/S 718 mmHg 15%
    13:00 +33°C° 0 mm 3 m/S 717 mmHg 13%
    14:00 +33°C° 0 mm 3 m/S 717 mmHg 13%
    15:00 +33°C° 0 mm 3 m/S 717 mmHg 12%
    16:00 +33°C° 0 mm 3 m/S 716 mmHg 12%
    17:00 +32°C° 0 mm 4 m/S 716 mmHg 14%
    18:00 +29°C° 0 mm 4 m/S 717 mmHg 16%
    19:00 +27°C° 0 mm 4 m/S 717 mmHg 17%
    20:00 +26°C° 0 mm 4 m/S 717 mmHg 19%
    21:00 +26°C° 0 mm 4 m/S 717 mmHg 20%
    22:00 +25°C° 0 mm 4 m/S 718 mmHg 21%
    23:00 +23°C° 0 mm 4 m/S 717 mmHg 23%

    Morgen, 21 Oktober, Samstag

    Zeit Temperatur Niederschläge Wind Luftdruck Luftfeuchtigkeit
    00:00 +23°C° 0 mm 4 m/S 717 mmHg 24%
    01:00 +22°C° 0 mm 4 m/S 717 mmHg 26%
    02:00 +22°C° 0 mm 4 m/S 717 mmHg 27%
    03:00 +21°C° 0 mm 4 m/S 717 mmHg 28%
    04:00 +21°C° 0 mm 4 m/S 716 mmHg 30%
    05:00 +21°C° 0 mm 4 m/S 717 mmHg 29%
    06:00 +22°C° 0 mm 4 m/S 717 mmHg 28%
    07:00 +22°C° 0 mm 4 m/S 718 mmHg 28%
    08:00 +25°C° 0 mm 4 m/S 718 mmHg 24%
    09:00 +28°C° 0 mm 4 m/S 718 mmHg 21%
    10:00 +30°C° 0 mm 4 m/S 719 mmHg 17%
    11:00 +31°C° 0 mm 3 m/S 718 mmHg 16%
    12:00 +32°C° 0 mm 2 m/S 717 mmHg 14%
    13:00 +32°C° 0 mm 1 m/S 716 mmHg 13%
    14:00 +32°C° 0 mm 2 m/S 716 mmHg 12%
    15:00 +34°C° 0 mm 2 m/S 715 mmHg 12%
    16:00 +34°C° 0 mm 2 m/S 715 mmHg 12%
    17:00 +31°C° 0 mm 2 m/S 715 mmHg 13%
    18:00 +29°C° 0 mm 3 m/S 715 mmHg 15%
    19:00 +27°C° 0 mm 3 m/S 716 mmHg 17%
    20:00 +27°C° 0 mm 3 m/S 716 mmHg 18%
    21:00 +26°C° 0 mm 3 m/S 716 mmHg 19%
    22:00 +25°C° 0 mm 4 m/S 716 mmHg 20%
    23:00 +25°C° 0 mm 4 m/S 716 mmHg 21%

    übermorgen, 22 Oktober, Sonntag

    Zeit Temperatur Niederschläge Wind Luftdruck Luftfeuchtigkeit
    00:00 +24°C° 0 mm 3 m/S 716 mmHg 22%
    01:00 +22°C° 0 mm 3 m/S 715 mmHg 24%
    02:00 +22°C° 0 mm 3 m/S 715 mmHg 25%
    03:00 +21°C° 0 mm 3 m/S 715 mmHg 27%
    04:00 +21°C° 0 mm 3 m/S 715 mmHg 28%
    05:00 +21°C° 0 mm 3 m/S 715 mmHg 28%
    06:00 +22°C° 0 mm 3 m/S 716 mmHg 28%
    07:00 +23°C° 0 mm 2 m/S 717 mmHg 27%
    08:00 +25°C° 0 mm 2 m/S 717 mmHg 24%
    09:00 +28°C° 0 mm 2 m/S 717 mmHg 21%
    10:00 +30°C° 0 mm 2 m/S 718 mmHg 18%
    11:00 +31°C° 0 mm 2 m/S 717 mmHg 16%
    12:00 +32°C° 0 mm 2 m/S 716 mmHg 14%
    13:00 +34°C° 0 mm 2 m/S 715 mmHg 13%
    14:00 +34°C° 0 mm 3 m/S 715 mmHg 13%
    15:00 +34°C° 0 mm 3 m/S 715 mmHg 12%
    16:00 +34°C° 0 mm 4 m/S 715 mmHg 12%
    17:00 +32°C° 0 mm 4 m/S 715 mmHg 14%
    18:00 +29°C° 0 mm 4 m/S 715 mmHg 16%
    19:00 +28°C° 0 mm 4 m/S 716 mmHg 18%
    20:00 +27°C° 0 mm 4 m/S 716 mmHg 19%
    21:00 +26°C° 0 mm 4 m/S 716 mmHg 20%
    22:00 +25°C° 0 mm 4 m/S 716 mmHg 22%
    23:00 +23°C° 0 mm 4 m/S 716 mmHg 24%

    23 Oktober, Montag

    Zeit Temperatur Niederschläge Wind Luftdruck Luftfeuchtigkeit
    00:00 +23°C° 0 mm 4 m/S 716 mmHg 26%
    01:00 +22°C° 0 mm 4 m/S 715 mmHg 27%
    02:00 +21°C° 0 mm 4 m/S 715 mmHg 29%
    03:00 +21°C° 0 mm 4 m/S 715 mmHg 31%
    04:00 +20°C° 0 mm 3 m/S 715 mmHg 32%
    05:00 +21°C° 0 mm 4 m/S 716 mmHg 32%
    06:00 +21°C° 0 mm 4 m/S 716 mmHg 32%
    07:00 +22°C° 0 mm 4 m/S 717 mmHg 31%
    08:00 +25°C° 0 mm 4 m/S 717 mmHg 27%
    09:00 +27°C° 0 mm 4 m/S 717 mmHg 24%
    10:00 +29°C° 0 mm 5 m/S 717 mmHg 20%
    11:00 +30°C° 0 mm 4 m/S 717 mmHg 18%
    12:00 +32°C° 0 mm 4 m/S 716 mmHg 16%
    13:00 +33°C° 0 mm 4 m/S 715 mmHg 14%
    14:00 +33°C° 0 mm 4 m/S 715 mmHg 14%
    15:00 +33°C° 0 mm 4 m/S 715 mmHg 14%
    16:00 +33°C° 0 mm 4 m/S 715 mmHg 13%
    17:00 +30°C° 0 mm 4 m/S 715 mmHg 15%
    18:00 +29°C° 0 mm 4 m/S 715 mmHg 17%
    19:00 +27°C° 0 mm 4 m/S 715 mmHg 19%
    20:00 +26°C° 0 mm 4 m/S 715 mmHg 21%
    21:00 +25°C° 0 mm 4 m/S 715 mmHg 22%
    22:00 +25°C° 0 mm 4 m/S 715 mmHg 23%
    23:00 +23°C° 0 mm 4 m/S 715 mmHg 24%

    24 Oktober, Dienstag

    Zeit Temperatur Niederschläge Wind Luftdruck Luftfeuchtigkeit
    00:00 +23°C° 0 mm 4 m/S 715 mmHg 26%
    01:00 +22°C° 0 mm 4 m/S 714 mmHg 27%
    02:00 +22°C° 0 mm 4 m/S 714 mmHg 28%
    03:00 +21°C° 0 mm 4 m/S 715 mmHg 29%
    04:00 +21°C° 0 mm 3 m/S 715 mmHg 31%
    05:00 +21°C° 0 mm 3 m/S 715 mmHg 30%
    06:00 +21°C° 0 mm 3 m/S 716 mmHg 30%
    07:00 +22°C° 0 mm 3 m/S 716 mmHg 29%
    08:00 +25°C° 0 mm 3 m/S 716 mmHg 26%
    09:00 +27°C° 0 mm 3 m/S 716 mmHg 22%
    10:00 +30°C° 0 mm 3 m/S 717 mmHg 18%
    11:00 +31°C° 0 mm 3 m/S 716 mmHg 17%
    12:00 +31°C° 0 mm 2 m/S 715 mmHg 16%
    13:00 +32°C° 0 mm 2 m/S 714 mmHg 14%
    14:00 +32°C° 0 mm 2 m/S 714 mmHg 14%
    15:00 +32°C° 0 mm 2 m/S 714 mmHg 14%
    16:00 +33°C° 0 mm 3 m/S 714 mmHg 14%
    17:00 +31°C° 0 mm 3 m/S 714 mmHg 15%
    18:00 +29°C° 0 mm 3 m/S 714 mmHg 17%
    19:00 +27°C° 0 mm 3 m/S 715 mmHg 19%
    20:00 +27°C° 0 mm 4 m/S 715 mmHg 20%
    21:00 +26°C° 0 mm 4 m/S 715 mmHg 20%
    22:00 +25°C° 0 mm 4 m/S 715 mmHg 21%
    23:00 +25°C° 0 mm 4 m/S 715 mmHg 22%

    25 Oktober, Mittwoch

    Zeit Temperatur Niederschläge Wind Luftdruck Luftfeuchtigkeit
    00:00 +23°C° 0 mm 4 m/S 715 mmHg 24%
    01:00 +22°C° 0 mm 4 m/S 715 mmHg 25%
    02:00 +22°C° 0 mm 4 m/S 715 mmHg 27%
    03:00 +21°C° 0 mm 4 m/S 715 mmHg 29%
    04:00 +21°C° 0 mm 4 m/S 716 mmHg 31%
    05:00 +21°C° 0 mm 4 m/S 716 mmHg 31%
    06:00 +22°C° 0 mm 4 m/S 716 mmHg 31%
    07:00 +22°C° 0 mm 5 m/S 717 mmHg 31%
    08:00 +25°C° 0 mm 5 m/S 717 mmHg 27%
    09:00 +28°C° 0 mm 5 m/S 717 mmHg 23%
    10:00 +30°C° 0 mm 5 m/S 717 mmHg 18%
    11:00 +32°C° 0 mm 4 m/S 717 mmHg 17%
    12:00 +33°C° 0 mm 3 m/S 716 mmHg 16%
    13:00 +34°C° 0 mm 2 m/S 715 mmHg 14%
    14:00 +34°C° 0 mm 2 m/S 715 mmHg 14%
    15:00 +34°C° 0 mm 2 m/S 715 mmHg 14%
    16:00 +34°C° 0 mm 2 m/S 715 mmHg 13%
    17:00 +31°C° 0 mm 2 m/S 715 mmHg 15%
    18:00 +29°C° 0 mm 2 m/S 715 mmHg 17%
    19:00 +28°C° 0 mm 3 m/S 715 mmHg 18%
    20:00 +27°C° 0 mm 3 m/S 715 mmHg 19%
    21:00 +26°C° 0 mm 3 m/S 715 mmHg 20%
    22:00 +26°C° 0 mm 4 m/S 715 mmHg 21%
    23:00 +25°C° 0 mm 3 m/S 715 mmHg 22%
    Mehr zeigen